Location: Newark
(39.6867°N, 100.6772°W)
Time: 15:25:04
(UTC+00:00)

Transit 2A - Visible Passes

Search period start: 21 October 2019 00:00
Search period end: 31 October 2019 00:00
Orbit: 600 x 958 km, 66.7° (Epoch: 20 October)

Date Brightness Start Highest point End Pass type
(mag) Time Alt. Az. Time Alt. Az. Time Alt. Az.
21 Oct 6.0 01:18:09 10° SSW 01:23:37 58° ESE 01:27:03 20° NE visible
21 Oct 8.1 03:03:03 10° W 03:07:02 21° NW 03:07:35 20° NW visible
21 Oct 7.6 10:11:44 25° E 10:11:44 25° E 10:14:01 10° ESE visible
21 Oct 6.7 11:52:20 21° W 11:52:59 22° WSW 11:56:21 10° SSW visible
22 Oct 6.5 00:44:25 10° S 00:49:33 38° ESE 00:54:15 10° NE visible
22 Oct 7.7 02:28:06 10° WSW 02:32:46 29° NW 02:35:09 20° N visible
22 Oct 6.7 11:20:33 26° SSW 11:20:33 26° SSW 11:22:59 10° S visible
23 Oct 7.1 01:53:24 10° SW 01:58:32 41° WNW 02:02:32 14° N visible
23 Oct 7.9 10:48:45 13° SSE 10:48:45 13° SSE 10:49:17 10° SSE visible
24 Oct 6.5 01:18:57 10° SW 01:24:22 60° WNW 01:29:17 10° NNE visible
25 Oct 6.0 00:44:42 10° SSW 00:50:15 88° WNW 00:55:15 10° NNE visible
25 Oct 8.6 02:31:23 10° WNW 02:33:59 14° NW 02:36:30 10° NNW visible
26 Oct 6.1 00:10:42 10° SSW 00:16:09 62° ESE 00:21:05 10° NE visible
26 Oct 8.3 01:55:54 10° W 01:59:38 19° NW 02:03:08 10° N visible
27 Oct 7.9 01:20:52 10° WSW 01:25:20 27° NW 01:29:28 10° N visible
28 Oct 7.3 00:46:07 10° WSW 00:51:06 38° NW 00:55:40 10° NNE visible
29 Oct 6.7 00:11:36 10° SW 00:16:55 55° WNW 00:21:45 10° NNE visible
30 Oct 8.5 01:24:25 10° WNW 01:26:34 13° NW 01:28:40 10° NNW visible
